This demonstration page uses our WeatherBlox Daily Observations layout. Learn more.

36.17497, -115.13722

Hourly Observations for June 25, 2016

Temp ( °F °C ) Dew Point ( °F °C ) Humidity (%) Winds ( mph kmh ) Pressure ( in mb ) Visibility ( mi km ) Precip ( " mm )
12:53 am 00:53 Clear 86 30 24 -4.4 10 10 NNW 8 13 29.76 1008 10 16.0934 0 0
1:53 am 01:53 Clear 83 28.3 23 -5 11 11 N 7 11 29.76 1008 10 16.0934 0 0
2:53 am 02:53 Clear 85 29.4 21 -6.1 9 9 N 7 11 29.76 1008 10 16.0934 0 0
3:53 am 03:53 Clear 83 28.3 21 -6.1 10 10 N 9 15 29.78 1009 10 16.0934 0 0
4:53 am 04:53 Clear 83 28.3 21 -6.1 10 10 N 6 9 29.8 1009 10 16.0934 0 0
5:53 am 05:53 Sunny 82 27.8 21 -6.1 10 10 N 8 13 29.83 1010 10 16.0934 0 0
6:53 am 06:53 Sunny 85 29.4 22 -5.6 10 10 N 10 17 29.85 1011 10 16.0934 0 0
7:53 am 07:53 Sunny 90 32.2 23 -5 9 9 N 12 19 29.86 1011 10 16.0934 0 0
8:53 am 08:53 Sunny 93 33.9 24 -4.4 8 8 N 10 17 29.88 1012 10 16.0934 0 0
9:53 am 09:53 Sunny 95 35 26 -3.3 8 8 NNE 5 7 29.88 1012 10 16.0934 0 0
10:53 am 10:53 Sunny 98 36.7 30 -1.1 9 9 E 13 20 29.87 1012 10 16.0934 0 0
11:53 am 11:53 Sunny 99 37.2 31 -0.6 9 9 SE 9 15 29.87 1011 10 16.0934 0 0
12:53 pm 12:53 Sunny 101 38.3 32 0 9 9 SE 9 15 29.85 1011 10 16.0934 0 0
1:53 pm 13:53 Sunny 102 38.9 33 0.6 9 9 VRB 5 7 29.83 1010 10 16.0934 0 0
2:53 pm 14:53 Sunny 103 39.4 33 0.6 9 9 S 3 6 29.81 1010 10 16.0934 0 0
3:53 pm 15:53 Sunny 105 40.6 28 -2.2 7 7 VRB 5 7 29.79 1009 10 16.0934 0 0
4:53 pm 16:53 Sunny 105 40.6 26 -3.3 6 6 WSW 3 6 29.77 1008 10 16.0934 0 0
5:53 pm 17:53 Sunny 105 40.6 28 -2.2 7 7 SSE 8 13 29.75 1007 10 16.0934 0 0
6:53 pm 18:53 Sunny 104 40 29 -1.7 7 7 Calm 29.75 1007 10 16.0934 0 0
7:53 pm 19:53 Sunny 101 38.3 28 -2.2 8 8 ESE 7 11 29.75 1007 10 16.0934 0 0
8:53 pm 20:53 Clear 99 37.2 29 -1.7 8 8 SE 7 11 29.77 1008 10 16.0934 0 0
9:53 pm 21:53 Clear 97 36.1 34 1.1 11 11 S 6 9 29.79 1009 10 16.0934 0 0
10:53 pm 22:53 Clear 94 34.4 35 1.7 13 13 N 5 7 29.8 1009 10 16.0934 0 0
11:53 pm 23:53 Clear 91 32.8 36 2.2 14 14 W 6 9 29.81 1009 10 16.0934 0 0

Powered by AerisWeather